Weather in Dovolnoe

Russia / Novosibirsk Oblast     54°29′45″N   79°39′41″E
temp.,
°C
wind,
m/s
gust,
m/s
humid.,
%
clouds,
%
prec.,
mm/h
press.,
hPa
HPBL,
m
27 february, sat
sat2701:00−27sw51097100 0.1 1036288
04:00−27sw4996100 0.0 1035261
07:00−28sw3797100 0.1 1036222
10:00−28sw4797100 0.1 1036255
13:00−25sw4596100 0.1 1037320
16:00−24sw3593100 0.0 1037331
19:00−27ssw349681 0.0 103739
22:00−29ssw34970 0.0 103831
28 february, sun
sun2801:00−30s34970 0.0 103741
04:00−29s349626 0.0 103640
07:00−29sse349640 0.0 103651
10:00−27se489432 0.0 1034179
13:00−21se588962 0.0 1031269
16:00−17se5989100 0.0 1028374
19:00−14se51094100 0.1 1024390
22:00−12ese51193100 0.1 1020376
1 march, mon
mon101:00−9se61195100 0.6 1016463
04:00−7se61295100 1.8 1011490
07:00−3sse61196100 3.7 1007549
10:00+1sw81397100 1.5 1006685
13:00+1sw71399100 1.6 1005689
16:000sw7139799 0.1 1004866
19:00−1wsw71396100 0.8 1004761
22:00−4wsw6138893 0.2 1007515
2 march, tue
tue201:00−10wsw7129496 0.3 1009340
04:00−14w5995100 0.1 1013243
07:00−17w4797100 0.2 1015168
10:00−18wsw4798100 0.1 1017201
13:00−16wsw3595100 0.1 1019279
16:00−14sw359298 0.0 1018338
19:00−17sw129799 0.0 101820
22:00−16se1297100 0.1 101741
3 march, wed
wed301:00−16se229799 0.4 101623
04:00−16ese1197100 0.3 101520
07:00−16ene1197100 0.7 101520
10:00−15w1296100 0.3 101695
13:00−13w349098 0.4 1017411
16:00−12wsw3590100 0.1 1019514
19:00−15wsw3395100 0.1 102133
22:00−18sw339896 0.0 102233